Radiation Dose at Monitoring Post of Fukushima Daini Nuclear Power Station
Date,Time,MP-1(microSv/h),MP-2(microSv/h),MP-3(microSv/h),MP-4(microSv/h),MP-5(microSv/h),MP-6(microSv/h),MP-7(microSv/h),Wind Direction,Wind Velocity(m/s),Rain
2016/08/24,00:00,0.393,0.238,0.411,0.374,0.362,0.195,0.164,north-northwest,4.5,No
2016/08/24,00:10,0.390,0.237,0.407,0.372,0.362,0.193,0.163,north-northwest,4.5,No
2016/08/24,00:20,0.392,0.236,0.404,0.373,0.363,0.193,0.163,north,4.4,No
2016/08/24,00:30,0.392,0.237,0.410,0.374,0.360,0.193,0.162,north,3.1,No
2016/08/24,00:40,0.390,0.235,0.405,0.371,0.363,0.191,0.161,north,2.8,No
2016/08/24,00:50,0.389,0.234,0.404,0.372,0.361,0.192,0.162,north-northwest,1.5,No
2016/08/24,01:00,0.393,0.237,0.408,0.375,0.358,0.190,0.162,northwest,1.1,No
2016/08/24,01:10,0.389,0.234,0.405,0.371,0.362,0.190,0.161,north,0.7,No
2016/08/24,01:20,0.388,0.234,0.404,0.371,0.361,0.190,0.161,north-northeast,2.7,No
2016/08/24,01:30,0.390,0.235,0.408,0.372,0.357,0.190,0.160,north-northeast,5.0,No
2016/08/24,01:40,0.387,0.233,0.406,0.368,0.361,0.190,0.161,north-northeast,6.7,No
2016/08/24,01:50,0.388,0.234,0.402,0.372,0.360,0.190,0.160,north-northeast,5.4,No
2016/08/24,02:00,0.389,0.235,0.407,0.372,0.357,0.189,0.159,north,4.4,No
2016/08/24,02:10,0.387,0.232,0.405,0.369,0.361,0.189,0.161,north,4.4,No
2016/08/24,02:20,0.388,0.233,0.401,0.370,0.359,0.190,0.160,north,3.5,No
2016/08/24,02:30,0.391,0.233,0.407,0.373,0.357,0.189,0.159,north,4.9,No
2016/08/24,02:40,0.388,0.232,0.406,0.369,0.361,0.189,0.160,north,4.3,No
2016/08/24,02:50,0.386,0.233,0.401,0.370,0.359,0.189,0.160,north,4.6,No
2016/08/24,03:00,0.393,0.235,0.404,0.372,0.357,0.189,0.159,north-northwest,3.8,No
2016/08/24,03:10,0.390,0.233,0.407,0.371,0.361,0.190,0.160,north-northwest,3.1,No
2016/08/24,03:20,0.387,0.233,0.402,0.369,0.360,0.190,0.160,north-northwest,3.3,No
2016/08/24,03:30,0.390,0.235,0.405,0.372,0.357,0.188,0.159,north,5.3,No
2016/08/24,03:40,0.389,0.232,0.407,0.369,0.361,0.191,0.161,north,4.5,No
2016/08/24,03:50,0.386,0.232,0.404,0.369,0.360,0.190,0.161,north-northwest,4.2,No
2016/08/24,04:00,0.390,0.235,0.406,0.371,0.357,0.189,0.158,north-northwest,5.6,No
2016/08/24,04:10,0.391,0.232,0.408,0.371,0.361,0.189,0.161,north,6.4,No
2016/08/24,04:20,0.386,0.232,0.405,0.369,0.358,0.190,0.160,north,5.8,No
2016/08/24,04:30,0.389,0.233,0.404,0.372,0.358,0.189,0.159,north,5.3,No
2016/08/24,04:40,0.391,0.232,0.408,0.372,0.361,0.189,0.159,north,4.3,No
2016/08/24,04:50,0.387,0.234,0.404,0.368,0.361,0.189,0.160,north,2.3,No
2016/08/24,05:00,0.390,0.232,0.404,0.372,0.358,0.189,0.158,north,2.7,No
2016/08/24,05:10,0.391,0.231,0.409,0.371,0.361,0.189,0.161,north,5.3,No
2016/08/24,05:20,0.388,0.234,0.403,0.370,0.358,0.190,0.160,north,5.5,No
2016/08/24,05:30,0.390,0.233,0.405,0.373,0.359,0.190,0.160,north,5.7,No
2016/08/24,05:40,0.391,0.233,0.407,0.370,0.362,0.189,0.161,north,3.8,No
2016/08/24,05:50,0.386,0.234,0.404,0.370,0.358,0.190,0.159,north,5.7,No
2016/08/24,06:00,0.391,0.234,0.406,0.373,0.358,0.190,0.160,north,6.1,No
2016/08/24,06:10,0.391,0.234,0.409,0.372,0.361,0.190,0.161,north,6.1,No
2016/08/24,06:20,0.387,0.234,0.405,0.370,0.357,0.190,0.160,north,5.5,No
2016/08/24,06:30,0.392,0.233,0.405,0.373,0.357,0.191,0.159,north,5.3,No
2016/08/24,06:40,0.391,0.234,0.409,0.370,0.362,0.191,0.160,north,6.1,No
2016/08/24,06:50,0.388,0.234,0.407,0.370,0.359,0.189,0.160,north,6.2,No
2016/08/24,07:00,0.389,0.233,0.403,0.372,0.354,0.189,0.159,north,4.4,No
2016/08/24,07:10,0.392,0.232,0.409,0.371,0.360,0.191,0.159,north,5.4,No
2016/08/24,07:20,0.391,0.235,0.406,0.368,0.360,0.190,0.158,north,2.6,No
2016/08/24,07:30,0.386,0.234,0.404,0.371,0.358,0.190,0.159,north,3.0,No
2016/08/24,07:40,0.392,0.233,0.402,0.374,0.355,0.190,0.161,north,2.8,No
2016/08/24,07:50,0.391,0.232,0.407,0.371,0.359,0.190,0.160,north,2.7,No
2016/08/24,08:00,0.390,0.232,0.407,0.369,0.360,0.190,0.160,north,2.8,No
2016/08/24,08:10,0.386,0.231,0.403,0.368,0.359,0.189,0.158,north-northeast,3.6,No
2016/08/24,08:20,0.387,0.231,0.402,0.370,0.358,0.189,0.159,north,4.7,No
2016/08/24,08:30,0.392,0.234,0.407,0.374,0.356,0.191,0.159,north-northeast,4.5,No
2016/08/24,08:40,0.394,0.235,0.409,0.372,0.358,0.190,0.157,north-northeast,3.9,No
2016/08/24,08:50,0.389,0.235,0.406,0.371,0.360,0.191,0.158,north-northeast,3.1,No
2016/08/24,09:00,0.388,0.232,0.404,0.368,0.361,0.190,0.159,north-northeast,3.7,No
2016/08/24,09:10,0.392,0.232,0.405,0.372,0.358,0.190,0.160,north,3.6,No
2016/08/24,09:20,0.392,0.234,0.408,0.375,0.357,0.190,0.161,north-northeast,3.5,No
2016/08/24,09:30,0.391,0.234,0.406,0.372,0.356,0.190,0.160,north,3.1,No
2016/08/24,09:40,0.387,0.235,0.403,0.370,0.361,0.190,0.160,north-northeast,2.3,No
2016/08/24,09:50,0.388,0.232,0.401,0.369,0.363,0.191,0.159,north-northeast,3.0,No
2016/08/24,10:00,0.393,0.232,0.402,0.369,0.360,0.191,0.159,north-northeast,2.9,No
2016/08/24,10:10,0.394,0.231,0.408,0.367,0.360,0.192,0.160,north-northeast,3.6,No
2016/08/24,10:20,0.392,0.231,0.409,0.372,0.358,0.191,0.160,north-northeast,3.4,No
2016/08/24,10:30,0.388,0.230,0.406,0.375,0.357,0.191,0.160,north-northeast,3.7,No
2016/08/24,10:40,0.387,0.233,0.404,0.374,0.357,0.190,0.160,north-northeast,4.1,No
2016/08/24,10:50,0.393,0.235,0.404,0.371,0.358,0.189,0.160,north-northeast,4.4,No
2016/08/24,11:00,0.395,0.235,0.403,0.370,0.365,0.189,0.162,north,3.5,No
2016/08/24,11:10,0.391,0.233,0.409,0.369,0.363,0.191,0.162,north,3.3,No
2016/08/24,11:20,0.390,0.233,0.409,0.371,0.361,0.192,0.161,north-northeast,2.7,No
2016/08/24,11:30,0.388,0.232,0.408,0.375,0.360,0.191,0.161,north-northeast,2.6,No
2016/08/24,11:40,0.389,0.231,0.406,0.376,0.359,0.190,0.162,northeast,2.4,No
2016/08/24,11:50,0.389,0.234,0.404,0.374,0.360,0.191,0.160,northeast,2.5,No
2016/08/24,12:00,0.389,0.235,0.406,0.373,0.361,0.191,0.160,east-northeast,2.4,No
2016/08/24,12:10,0.389,0.234,0.405,0.371,0.360,0.192,0.160,east-northeast,2.7,No
2016/08/24,12:20,0.388,0.235,0.405,0.372,0.360,0.190,0.160,east,2.2,No
2016/08/24,12:30,0.389,0.233,0.406,0.371,0.359,0.191,0.160,east-northeast,2.8,No
2016/08/24,12:40,0.392,0.233,0.406,0.372,0.361,0.191,0.161,east-northeast,1.7,No
2016/08/24,12:50,0.397,0.234,0.405,0.372,0.359,0.191,0.161,east-northeast,1.5,No
2016/08/24,13:00,0.397,0.234,0.405,0.370,0.359,0.190,0.161,east,1.0,No
2016/08/24,13:10,0.393,0.234,0.405,0.371,0.360,0.191,0.161,east,1.3,No
2016/08/24,13:20,0.391,0.233,0.406,0.371,0.360,0.192,0.160,southeast,0.5,No
2016/08/24,13:30,0.392,0.233,0.404,0.370,0.361,0.191,0.160,-,-,No
2016/08/24,13:40,0.389,0.234,0.406,0.371,0.359,0.192,0.161,-,-,No
2016/08/24,13:50,0.390,0.234,0.407,0.371,0.362,0.192,0.161,-,-,No
2016/08/24,14:00,0.391,0.235,0.408,0.372,0.363,0.193,0.162,-,-,No
2016/08/24,14:10,0.391,0.234,0.409,0.371,0.362,0.193,0.162,-,-,No
2016/08/24,14:20,0.391,0.235,0.409,0.373,0.362,0.192,0.162,-,-,No
2016/08/24,14:30,0.393,0.234,0.409,0.374,0.363,0.193,0.161,-,-,No
2016/08/24,14:40,0.390,0.233,0.410,0.375,0.361,0.192,0.161,-,-,No
2016/08/24,14:50,0.395,0.233,0.410,0.374,0.361,0.192,0.161,-,-,No
2016/08/24,15:00,0.397,0.233,0.408,0.373,0.361,0.192,0.162,-,-,No
2016/08/24,15:10,0.396,0.233,0.407,0.374,0.359,0.191,0.161,-,-,No
2016/08/24,15:20,0.393,0.232,0.408,0.379,0.361,0.191,0.161,-,-,No
2016/08/24,15:30,0.391,0.235,0.409,0.377,0.361,0.192,0.162,-,-,No
2016/08/24,15:40,0.391,0.235,0.415,0.375,0.360,0.193,0.162,-,-,No
2016/08/24,15:50,0.393,0.234,0.410,0.373,0.360,0.192,0.162,-,-,No
2016/08/24,16:00,0.399,0.235,0.409,0.374,0.365,0.192,0.161,-,-,No
2016/08/24,16:10,0.396,0.234,0.407,0.380,0.366,0.193,0.160,-,-,No
2016/08/24,16:20,0.393,0.236,0.410,0.376,0.363,0.192,0.162,-,-,No
2016/08/24,16:30,0.390,0.236,0.414,0.373,0.359,0.193,0.162,-,-,No
2016/08/24,16:40,0.393,0.235,0.412,0.373,0.360,0.191,0.161,-,-,No
2016/08/24,16:50,0.397,0.235,0.409,0.379,0.358,0.193,0.161,-,-,No
2016/08/24,17:00,0.395,0.235,0.407,0.377,0.359,0.192,0.162,-,-,No
2016/08/24,17:10,0.391,0.237,0.412,0.373,0.360,0.192,0.162,-,-,No
2016/08/24,17:20,0.391,0.236,0.414,0.373,0.359,0.191,0.161,south-southwest,2.1,No
2016/08/24,17:30,0.395,0.234,0.409,0.379,0.359,0.193,0.161,southwest,1.1,No
2016/08/24,17:40,0.396,0.235,0.407,0.377,0.365,0.193,0.162,southwest,0.8,No
2016/08/24,17:50,0.391,0.235,0.408,0.374,0.365,0.192,0.162,-,CALM,No
2016/08/24,18:00,0.392,0.235,0.413,0.374,0.364,0.191,0.160,north-northwest,1.0,No
2016/08/24,18:10,0.397,0.233,0.410,0.377,0.361,0.191,0.163,northeast,1.0,No
2016/08/24,18:20,0.395,0.237,0.406,0.376,0.365,0.192,0.162,south-southeast,2.3,No
2016/08/24,18:30,0.392,0.236,0.411,0.374,0.365,0.192,0.161,south-southeast,2.7,No
2016/08/24,18:40,0.395,0.234,0.412,0.378,0.361,0.191,0.161,south,2.7,No
2016/08/24,18:50,0.397,0.236,0.410,0.377,0.360,0.192,0.162,south,1.5,No
2016/08/24,19:00,0.392,0.236,0.405,0.374,0.365,0.192,0.162,south,5.1,No
2016/08/24,19:10,0.390,0.234,0.412,0.375,0.362,0.191,0.161,south,5.3,No
2016/08/24,19:20,0.396,0.236,0.411,0.378,0.361,0.192,0.162,south,6.6,No
2016/08/24,19:30,0.395,0.236,0.408,0.374,0.363,0.192,0.161,south,7.0,No
2016/08/24,19:40,0.392,0.235,0.408,0.373,0.364,0.191,0.160,south,7.2,No
2016/08/24,19:50,0.391,0.234,0.412,0.377,0.361,0.192,0.163,south-southwest,6.9,No
2016/08/24,20:00,0.396,0.236,0.410,0.378,0.359,0.192,0.160,south-southwest,6.2,No
2016/08/24,20:10,0.395,0.236,0.406,0.374,0.365,0.191,0.160,south-southwest,7.4,No
2016/08/24,20:20,0.391,0.234,0.412,0.375,0.362,0.191,0.163,south-southwest,8.4,No
2016/08/24,20:30,0.396,0.236,0.411,0.378,0.359,0.192,0.162,south-southwest,8.6,No
2016/08/24,20:40,0.396,0.235,0.409,0.375,0.362,0.191,0.160,south-southwest,7.4,No
2016/08/24,20:50,0.392,0.234,0.409,0.372,0.363,0.191,0.162,south-southwest,4.4,No
2016/08/24,21:00,0.392,0.236,0.411,0.377,0.360,0.192,0.163,south,4.7,No
2016/08/24,21:10,0.397,0.237,0.408,0.375,0.363,0.193,0.161,south,5.2,No
2016/08/24,21:20,0.392,0.234,0.407,0.372,0.363,0.191,0.162,south,6.1,No
2016/08/24,21:30,0.392,0.236,0.413,0.378,0.360,0.192,0.162,south,6.9,No
2016/08/24,21:40,0.396,0.236,0.411,0.376,0.362,0.192,0.160,south-southwest,6.7,No
2016/08/24,21:50,0.394,0.235,0.406,0.372,0.363,0.191,0.162,south,7.2,No
2016/08/24,22:00,0.392,0.235,0.411,0.378,0.360,0.192,0.163,south,7.9,No
2016/08/24,22:10,0.396,0.234,0.412,0.376,0.364,0.192,0.161,south,7.2,No
2016/08/24,22:20,0.395,0.234,0.407,0.373,0.363,0.192,0.161,south,7.0,No
2016/08/24,22:30,0.389,0.236,0.409,0.375,0.359,0.192,0.163,south-southwest,6.7,No
2016/08/24,22:40,0.395,0.234,0.411,0.376,0.361,0.193,0.161,south-southwest,7.4,No
2016/08/24,22:50,0.395,0.236,0.408,0.375,0.364,0.192,0.161,south-southwest,7.0,No
2016/08/24,23:00,0.392,0.235,0.408,0.374,0.360,0.191,0.162,south-southwest,8.0,No
2016/08/24,23:10,0.393,0.235,0.412,0.376,0.361,0.192,0.161,south-southwest,6.9,No
2016/08/24,23:20,0.397,0.235,0.411,0.373,0.363,0.191,0.161,south-southwest,7.3,No
2016/08/24,23:30,0.392,0.235,0.407,0.373,0.362,0.192,0.163,south-southwest,7.3,No
2016/08/24,23:40,0.392,0.235,0.413,0.377,0.359,0.192,0.163,south-southwest,8.0,No
2016/08/24,23:50,0.396,0.235,0.411,0.375,0.364,0.192,0.160,south-southwest,8.1,No
